• In Austria
  • List of Countries
  • For 7 days
  • Water Temperature
  • Satellite Maps
  • Weather Map
  • News
  • Weather Widgets
  • user-avatar
    Login

    Hourly Weather Pamporovo

    Today, 19 April, Thursday

    Time Temperature Precipitation Wind Pressure Humidity
    00:00 +4°C° 0 mm 2 mps 630 mmHg 80%
    01:00 +4°C° 0 mm 2 mps 630 mmHg 80%
    02:00 +4°C° 0 mm 2 mps 630 mmHg 79%
    03:00 +4°C° 0 mm 2 mps 630 mmHg 81%
    04:00 +4°C° 0 mm 2 mps 630 mmHg 82%
    05:00 +3°C° 0 mm 2 mps 630 mmHg 84%
    06:00 +5°C° 0 mm 2 mps 630 mmHg 79%
    07:00 +6°C° 0 mm 2 mps 631 mmHg 74%
    08:00 +8°C° 0 mm 2 mps 632 mmHg 70%
    09:00 +9°C° 0 mm 2 mps 632 mmHg 67%
    10:00 +10°C° 0 mm 2 mps 632 mmHg 64%
    11:00 +12°C° 0 mm 2 mps 632 mmHg 60%
    12:00 +12°C° 0.1 mm 2 mps 632 mmHg 58%
    13:00 +13°C° 0.1 mm 2 mps 632 mmHg 56%
    14:00 +14°C° 0.1 mm 2 mps 632 mmHg 54%
    15:00 +14°C° 0.1 mm 2 mps 631 mmHg 56%
    16:00 +13°C° 0.1 mm 2 mps 631 mmHg 58%
    17:00 +13°C° 0.1 mm 2 mps 630 mmHg 60%
    18:00 +11°C° 0.1 mm 1 mps 630 mmHg 67%
    19:00 +10°C° 0.1 mm 1 mps 629 mmHg 74%
    20:00 +8°C° 0.1 mm 1 mps 628 mmHg 81%
    21:00 +7°C° 0 mm 1 mps 628 mmHg 82%
    22:00 +7°C° 0 mm 1 mps 628 mmHg 83%
    23:00 +7°C° 0 mm 1 mps 627 mmHg 84%

    Tomorrow, 20 April, Friday

    Time Temperature Precipitation Wind Pressure Humidity
    00:00 +5°C° 0 mm 2 mps 627 mmHg 85%
    01:00 +5°C° 0 mm 2 mps 627 mmHg 85%
    02:00 +5°C° 0 mm 2 mps 626 mmHg 85%
    03:00 +4°C° 0 mm 2 mps 626 mmHg 85%
    04:00 +4°C° 0 mm 2 mps 626 mmHg 84%
    05:00 +4°C° 0 mm 2 mps 625 mmHg 84%
    06:00 +4°C° 0 mm 3 mps 626 mmHg 80%
    07:00 +5°C° 0 mm 3 mps 627 mmHg 76%
    08:00 +7°C° 0 mm 3 mps 627 mmHg 71%
    09:00 +7°C° 0.1 mm 3 mps 627 mmHg 69%
    10:00 +6°C° 0.1 mm 4 mps 628 mmHg 66%
    11:00 +6°C° 0.1 mm 4 mps 628 mmHg 64%
    12:00 +8°C° 0.1 mm 3 mps 628 mmHg 61%
    13:00 +8°C° 0.1 mm 3 mps 628 mmHg 59%
    14:00 +8°C° 0.1 mm 3 mps 629 mmHg 56%
    15:00 +8°C° 0.2 mm 3 mps 628 mmHg 58%
    16:00 +8°C° 0.2 mm 3 mps 628 mmHg 59%
    17:00 +7°C° 0.2 mm 3 mps 628 mmHg 61%
    18:00 +5°C° 0.1 mm 3 mps 628 mmHg 68%
    19:00 +4°C° 0.1 mm 2 mps 627 mmHg 75%
    20:00 +3°C° 0.1 mm 1 mps 627 mmHg 82%
    21:00 +3°C° 0 mm 1 mps 627 mmHg 84%
    22:00 +2°C° 0 mm 1 mps 628 mmHg 86%
    23:00 +2°C° 0 mm 1 mps 628 mmHg 88%

    Day after tomorrow, 21 April, Saturday

    Time Temperature Precipitation Wind Pressure Humidity
    00:00 +1°C° 0 mm 1 mps 628 mmHg 88%
    01:00 +1°C° 0 mm 1 mps 628 mmHg 89%
    02:00 -1°C° 0 mm 2 mps 627 mmHg 89%
    03:00 -2°C° 0 mm 2 mps 627 mmHg 89%
    04:00 -2°C° 0 mm 2 mps 627 mmHg 88%
    05:00 -2°C° 0 mm 2 mps 627 mmHg 87%
    06:00 +1°C° 0 mm 2 mps 628 mmHg 78%
    07:00 +2°C° 0 mm 2 mps 628 mmHg 69%
    08:00 +3°C° 0 mm 3 mps 629 mmHg 60%
    09:00 +4°C° 0 mm 3 mps 629 mmHg 54%
    10:00 +7°C° 0 mm 3 mps 630 mmHg 49%
    11:00 +8°C° 0 mm 3 mps 630 mmHg 43%
    12:00 +9°C° 0 mm 3 mps 630 mmHg 42%
    13:00 +10°C° 0 mm 3 mps 630 mmHg 41%
    14:00 +12°C° 0 mm 2 mps 630 mmHg 39%
    15:00 +10°C° 0 mm 2 mps 630 mmHg 41%
    16:00 +10°C° 0 mm 2 mps 629 mmHg 43%
    17:00 +10°C° 0 mm 2 mps 629 mmHg 45%
    18:00 +8°C° 0 mm 1 mps 628 mmHg 53%
    19:00 +6°C° 0 mm 1 mps 627 mmHg 61%
    20:00 +3°C° 0 mm 0 mps 627 mmHg 70%
    21:00 +4°C° 0 mm 1 mps 627 mmHg 70%
    22:00 +3°C° 0 mm 1 mps 627 mmHg 69%
    23:00 +3°C° 0 mm 1 mps 627 mmHg 69%

    22 April, Sunday

    Time Temperature Precipitation Wind Pressure Humidity
    00:00 +3°C° 0 mm 1 mps 626 mmHg 68%
    01:00 +3°C° 0 mm 1 mps 626 mmHg 66%
    02:00 +2°C° 0 mm 2 mps 626 mmHg 64%
    03:00 +1°C° 0 mm 2 mps 626 mmHg 61%
    04:00 +1°C° 0 mm 2 mps 626 mmHg 57%
    05:00 +1°C° 0 mm 2 mps 625 mmHg 54%
    06:00 +5°C° 0 mm 1 mps 626 mmHg 49%
    07:00 +7°C° 0 mm 1 mps 627 mmHg 45%
    08:00 +9°C° 0 mm 1 mps 628 mmHg 40%
    09:00 +11°C° 0 mm 1 mps 629 mmHg 38%
    10:00 +13°C° 0 mm 1 mps 629 mmHg 35%
    11:00 +15°C° 0 mm 2 mps 630 mmHg 32%
    12:00 +16°C° 0 mm 2 mps 630 mmHg 32%
    13:00 +16°C° 0 mm 2 mps 630 mmHg 32%
    14:00 +17°C° 0 mm 2 mps 630 mmHg 32%
    15:00 +16°C° 0 mm 2 mps 629 mmHg 35%
    16:00 +16°C° 0 mm 2 mps 629 mmHg 38%
    17:00 +15°C° 0 mm 2 mps 628 mmHg 41%
    18:00 +13°C° 0 mm 2 mps 627 mmHg 50%
    19:00 +11°C° 0 mm 1 mps 627 mmHg 59%
    20:00 +8°C° 0 mm 1 mps 626 mmHg 67%
    21:00 +8°C° 0 mm 1 mps 626 mmHg 68%
    22:00 +7°C° 0 mm 1 mps 626 mmHg 69%
    23:00 +7°C° 0 mm 1 mps 626 mmHg 70%

    23 April, Monday

    Time Temperature Precipitation Wind Pressure Humidity
    00:00 +7°C° 0 mm 1 mps 626 mmHg 69%
    01:00 +7°C° 0 mm 1 mps 626 mmHg 68%
    02:00 +6°C° 0 mm 1 mps 626 mmHg 67%
    03:00 +6°C° 0 mm 1 mps 625 mmHg 66%
    04:00 +6°C° 0 mm 1 mps 625 mmHg 65%
    05:00 +6°C° 0 mm 1 mps 625 mmHg 64%
    06:00 +8°C° 0 mm 1 mps 626 mmHg 59%
    07:00 +10°C° 0 mm 1 mps 627 mmHg 54%
    08:00 +11°C° 0 mm 0 mps 628 mmHg 49%
    09:00 +14°C° 0 mm 1 mps 628 mmHg 45%
    10:00 +15°C° 0 mm 1 mps 629 mmHg 41%
    11:00 +17°C° 0 mm 2 mps 629 mmHg 37%
    12:00 +17°C° 0 mm 2 mps 629 mmHg 37%
    13:00 +18°C° 0 mm 2 mps 629 mmHg 37%
    14:00 +18°C° 0 mm 3 mps 629 mmHg 37%
    15:00 +17°C° 0.1 mm 2 mps 628 mmHg 41%
    16:00 +17°C° 0.1 mm 2 mps 628 mmHg 46%
    17:00 +16°C° 0.1 mm 2 mps 627 mmHg 50%
    18:00 +14°C° 0.1 mm 2 mps 626 mmHg 58%
    19:00 +12°C° 0.1 mm 1 mps 626 mmHg 66%
    20:00 +10°C° 0.1 mm 1 mps 625 mmHg 74%
    21:00 +9°C° 0.1 mm 1 mps 625 mmHg 75%
    22:00 +9°C° 0.1 mm 1 mps 625 mmHg 76%
    23:00 +8°C° 0.1 mm 1 mps 625 mmHg 77%

    24 April, Tuesday

    Time Temperature Precipitation Wind Pressure Humidity
    00:00 +8°C° 0 mm 1 mps 625 mmHg 77%
    01:00 +8°C° 0 mm 1 mps 624 mmHg 77%
    02:00 +8°C° 0 mm 1 mps 624 mmHg 76%
    03:00 +8°C° 0 mm 1 mps 624 mmHg 76%
    04:00 +7°C° 0 mm 1 mps 624 mmHg 76%
    05:00 +7°C° 0 mm 1 mps 624 mmHg 75%
    06:00 +9°C° 0 mm 1 mps 625 mmHg 69%
    07:00 +11°C° 0 mm 1 mps 626 mmHg 63%
    08:00 +12°C° 0 mm 0 mps 627 mmHg 57%
    09:00 +15°C° 0 mm 1 mps 627 mmHg 52%
    10:00 +16°C° 0 mm 1 mps 628 mmHg 48%
    11:00 +17°C° 0 mm 2 mps 628 mmHg 44%
    12:00 +17°C° 0.1 mm 2 mps 628 mmHg 44%
    13:00 +17°C° 0.1 mm 2 mps 628 mmHg 45%
    14:00 +18°C° 0.1 mm 2 mps 628 mmHg 45%
    15:00 +17°C° 0.2 mm 2 mps 627 mmHg 49%
    16:00 +16°C° 0.2 mm 2 mps 627 mmHg 53%
    17:00 +15°C° 0.2 mm 2 mps 627 mmHg 56%
    18:00 +13°C° 0.2 mm 2 mps 626 mmHg 62%
    19:00 +12°C° 0.2 mm 1 mps 626 mmHg 68%
    20:00 +10°C° 0.2 mm 1 mps 625 mmHg 74%
    21:00 +9°C° 0.1 mm 1 mps 625 mmHg 76%
    22:00 +9°C° 0.1 mm 1 mps 625 mmHg 78%
    23:00 +8°C° 0.1 mm 1 mps 626 mmHg 81%
    Show more